N2332E KLAL-

Flight info

Callsign N2332E
Flight time N/A
Altitude VFR
Route
Aircraft DA40/L-VGD/C

Departure

Time 2026-04-22 00:43
Airport Lakeland Linder International Airport (KLAL)

Arrival

Time N/A
Airport -
Time Latitude Longitude Altitude Speed Heading
2026-04-22 00:33 27.98500 -82.02042 142 ft 13 kts 44°
2026-04-22 00:33 27.98561 -82.01971 143 ft 11 kts 43°
2026-04-22 00:33 27.98615 -82.01914 144 ft 12 kts 44°
2026-04-22 00:33 27.98688 -82.01831 143 ft 17 kts 39°
2026-04-22 00:34 27.98732 -82.01900 141 ft 13 kts 270°
2026-04-22 00:34 27.98732 -82.02020 141 ft 16 kts 270°
2026-04-22 00:34 27.98731 -82.02167 139 ft 21 kts 269°
2026-04-22 00:34 27.98744 -82.02293 135 ft 8 kts 345°
2026-04-22 00:35 27.98823 -82.02335 135 ft 19 kts 275°
2026-04-22 00:35 27.98817 -82.02465 134 ft 18 kts 272°
2026-04-22 00:35 27.98816 -82.02593 134 ft 19 kts 268°
2026-04-22 00:35 27.98814 -82.02757 132 ft 23 kts 268°
2026-04-22 00:36 27.98816 -82.02906 133 ft 18 kts 269°
2026-04-22 00:36 27.98815 -82.03055 135 ft 20 kts 270°
2026-04-22 00:36 27.98814 -82.03183 136 ft 14 kts 269°
2026-04-22 00:36 27.98814 -82.03290 135 ft 7 kts 272°
2026-04-22 00:37 27.98828 -82.03341 135 ft 7 kts 314°
2026-04-22 00:37 27.98835 -82.03347 135 ft 4 kts 328°
2026-04-22 00:37 27.98848 -82.03353 135 ft 0 kts 347°
2026-04-22 00:38 27.98849 -82.03354 135 ft 0 kts 334°
2026-04-22 00:38 27.98866 -82.03357 136 ft 0 kts 358°
2026-04-22 00:39 27.98870 -82.03357 136 ft 0 kts
2026-04-22 00:39 27.98871 -82.03357 136 ft 0 kts 359°
2026-04-22 00:40 27.98875 -82.03359 136 ft 0 kts 353°
2026-04-22 00:41 27.98887 -82.03358 136 ft 0 kts 13°
2026-04-22 00:41 27.98926 -82.03307 136 ft 16 kts 82°
2026-04-22 00:41 27.98926 -82.03259 135 ft 0 kts 91°
2026-04-22 00:42 27.98927 -82.03113 133 ft 54 kts 91°
2026-04-22 00:43 27.98926 -82.02465 152 ft 102 kts 90°
2026-04-22 00:43 27.98926 -82.01589 267 ft 113 kts 90°
2026-04-22 00:43 27.98920 -82.00730 550 ft 106 kts 90°
2026-04-22 00:43 27.98938 -81.99942 930 ft 95 kts 88°
2026-04-22 00:44 27.98957 -81.99201 1248 ft 94 kts 88°
2026-04-22 00:44 27.98988 -81.98462 1515 ft 98 kts 87°
2026-04-22 00:44 27.99015 -81.97654 1735 ft 105 kts 87°
2026-04-22 00:44 27.99048 -81.96808 1960 ft 109 kts 88°
2026-04-22 00:45 27.99079 -81.95942 2188 ft 111 kts 88°
2026-04-22 00:45 27.99112 -81.95051 2332 ft 120 kts 88°
2026-04-22 00:45 27.99159 -81.94047 2321 ft 132 kts 84°
2026-04-22 00:45 27.99273 -81.93003 2324 ft 137 kts 82°
2026-04-22 00:46 27.99382 -81.91945 2405 ft 134 kts 85°
2026-04-22 00:46 27.99428 -81.90894 2486 ft 133 kts 88°
2026-04-22 00:46 27.99451 -81.89833 2497 ft 137 kts 88°
2026-04-22 00:46 27.99475 -81.88750 2500 ft 139 kts 88°
2026-04-22 00:47 27.99531 -81.87656 2501 ft 139 kts 85°
2026-04-22 00:47 27.99583 -81.86556 2502 ft 140 kts 88°
2026-04-22 00:47 27.99623 -81.85470 2499 ft 140 kts 88°
2026-04-22 00:47 27.99663 -81.84367 2499 ft 140 kts 87°
2026-04-22 00:48 27.99704 -81.83260 2500 ft 140 kts 87°
2026-04-22 00:48 27.99745 -81.82154 2500 ft 140 kts 88°
2026-04-22 00:48 27.99787 -81.81049 2500 ft 140 kts 87°
2026-04-22 00:48 27.99829 -81.79938 2500 ft 141 kts 87°
2026-04-22 00:49 27.99870 -81.78846 2500 ft 140 kts 88°
2026-04-22 00:49 27.99912 -81.77740 2500 ft 140 kts 87°
2026-04-22 00:49 27.99954 -81.76633 2500 ft 140 kts 87°
2026-04-22 00:49 27.99996 -81.75529 2500 ft 140 kts 87°
2026-04-22 00:50 28.00075 -81.74427 2500 ft 140 kts 83°
2026-04-22 00:50 28.00184 -81.73329 2500 ft 140 kts 83°
2026-04-22 00:50 28.00295 -81.72226 2482 ft 142 kts 83°
2026-04-22 00:50 28.00406 -81.71120 2481 ft 141 kts 83°
2026-04-22 00:51 28.00516 -81.70015 2482 ft 141 kts 83°
2026-04-22 00:51 28.00626 -81.68923 2483 ft 141 kts 83°
2026-04-22 00:51 28.00737 -81.67819 2482 ft 141 kts 83°
2026-04-22 00:51 28.00847 -81.66718 2482 ft 141 kts 83°
2026-04-22 00:52 28.00958 -81.65615 2483 ft 141 kts 83°
2026-04-22 00:52 28.01069 -81.64513 2482 ft 141 kts 83°
2026-04-22 00:52 28.01180 -81.63410 2482 ft 141 kts 83°
2026-04-22 00:52 28.01291 -81.62306 2482 ft 141 kts 83°
2026-04-22 00:53 28.01403 -81.61203 2483 ft 141 kts 83°
2026-04-22 00:53 28.01514 -81.60101 2483 ft 141 kts 83°
2026-04-22 00:53 28.01624 -81.59010 2483 ft 141 kts 83°
2026-04-22 00:53 28.01736 -81.57903 2483 ft 141 kts 83°
2026-04-22 00:54 28.01848 -81.56799 2483 ft 141 kts 83°
2026-04-22 00:54 28.01959 -81.55694 2483 ft 141 kts 83°
2026-04-22 00:54 28.02071 -81.54592 2483 ft 141 kts 83°
2026-04-22 00:54 28.02183 -81.53488 2483 ft 141 kts 83°
2026-04-22 00:55 28.02347 -81.52406 2483 ft 141 kts 77°
2026-04-22 00:55 28.02539 -81.51320 2481 ft 141 kts 84°
2026-04-22 00:55 28.02738 -81.49112 2484 ft 141 kts 83°
2026-04-22 00:56 28.02848 -81.48036 2482 ft 131 kts 83°
2026-04-22 00:56 28.02947 -81.47054 2483 ft 121 kts 83°
2026-04-22 00:56 28.03040 -81.46137 2483 ft 117 kts 83°
2026-04-22 00:56 28.03132 -81.45232 2482 ft 115 kts 83°
2026-04-22 00:57 28.03223 -81.44337 2483 ft 114 kts 83°
2026-04-22 00:57 28.03314 -81.43448 2482 ft 113 kts 83°
2026-04-22 00:57 28.03404 -81.42560 2482 ft 113 kts 83°
2026-04-22 00:57 28.03496 -81.41672 2482 ft 113 kts 83°
2026-04-22 00:58 28.03586 -81.40799 2483 ft 113 kts 83°
2026-04-22 00:58 28.03677 -81.39915 2482 ft 113 kts 83°
2026-04-22 00:58 28.03768 -81.39031 2482 ft 113 kts 83°
2026-04-22 00:58 28.03859 -81.38145 2482 ft 113 kts 83°
2026-04-22 00:59 28.03950 -81.37264 2482 ft 113 kts 83°
2026-04-22 00:59 28.04041 -81.36383 2481 ft 113 kts 83°
2026-04-22 00:59 28.04131 -81.35502 2485 ft 112 kts 83°
2026-04-22 00:59 28.04222 -81.34621 2485 ft 113 kts 83°
2026-04-22 01:00 28.04313 -81.33741 2485 ft 113 kts 83°
2026-04-22 01:00 28.04405 -81.32859 2486 ft 113 kts 83°
2026-04-22 01:00 28.04496 -81.31978 2486 ft 113 kts 83°
2026-04-22 01:00 28.04588 -81.31095 2486 ft 113 kts 83°
2026-04-22 01:01 28.04678 -81.30224 2486 ft 113 kts 83°
2026-04-22 01:01 28.04770 -81.29340 2486 ft 113 kts 83°
2026-04-22 01:01 28.04862 -81.28456 2487 ft 116 kts 83°
2026-04-22 01:01 28.04964 -81.27484 2501 ft 130 kts 83°
2026-04-22 01:02 28.05074 -81.26433 2502 ft 137 kts 83°
2026-04-22 01:02 28.05188 -81.25349 2502 ft 139 kts 83°
2026-04-22 01:02 28.05302 -81.24253 2502 ft 140 kts 83°
2026-04-22 01:02 28.05418 -81.23153 2500 ft 141 kts 83°
2026-04-22 01:03 28.05533 -81.22049 2500 ft 141 kts 83°
2026-04-22 01:03 28.05647 -81.20961 2501 ft 141 kts 83°
2026-04-22 01:03 28.05764 -81.19857 2500 ft 141 kts 83°
2026-04-22 01:03 28.05878 -81.18768 2499 ft 137 kts 83°
2026-04-22 01:04 28.05989 -81.17710 2495 ft 134 kts 83°
2026-04-22 01:04 28.06098 -81.16669 2491 ft 132 kts 83°
2026-04-22 01:04 28.06169 -81.15992 2489 ft 132 kts 83°
2026-04-22 01:04 28.06172 -81.15967 2489 ft 132 kts 83°
2026-04-22 01:05 28.06280 -81.14936 2492 ft 133 kts 83°
2026-04-22 01:05 28.06393 -81.13871 2498 ft 138 kts 83°
2026-04-22 01:05 28.06508 -81.12786 2500 ft 140 kts 83°
2026-04-22 01:05 28.06622 -81.11702 2501 ft 141 kts 83°
2026-04-22 01:06 28.06739 -81.10599 2501 ft 141 kts 83°
2026-04-22 01:06 28.06860 -81.09496 2501 ft 141 kts 80°
2026-04-22 01:06 28.07221 -81.08471 2497 ft 140 kts 64°
2026-04-22 01:06 28.07627 -81.07464 2497 ft 141 kts 67°
2026-04-22 01:07 28.07965 -81.06422 2498 ft 141 kts 70°
2026-04-22 01:07 28.08297 -81.05377 2498 ft 141 kts 70°
2026-04-22 01:07 28.08628 -81.04332 2498 ft 141 kts 70°
2026-04-22 01:07 28.08959 -81.03286 2499 ft 141 kts 70°
2026-04-22 01:08 28.09289 -81.02240 2499 ft 141 kts 70°
2026-04-22 01:08 28.09620 -81.01193 2498 ft 141 kts 70°
2026-04-22 01:08 28.09952 -81.00145 2499 ft 141 kts 70°
2026-04-22 01:08 28.10280 -80.99110 2469 ft 143 kts 70°
2026-04-22 01:09 28.10620 -80.98034 2415 ft 144 kts 70°
2026-04-22 01:09 28.10957 -80.96971 2415 ft 142 kts 70°
2026-04-22 01:09 28.11290 -80.95920 2414 ft 141 kts 70°
2026-04-22 01:09 28.11623 -80.94873 2414 ft 141 kts 70°
2026-04-22 01:10 28.11955 -80.93828 2413 ft 141 kts 70°
2026-04-22 01:10 28.12287 -80.92781 2413 ft 141 kts 70°
2026-04-22 01:10 28.12619 -80.91733 2413 ft 141 kts 70°
2026-04-22 01:10 28.12899 -80.90668 2413 ft 141 kts 74°
2026-04-22 01:11 28.13164 -80.89612 2413 ft 141 kts 74°
2026-04-22 01:11 28.13433 -80.88541 2413 ft 141 kts 74°
2026-04-22 01:11 28.13701 -80.87473 2413 ft 141 kts 74°
2026-04-22 01:11 28.13969 -80.86405 2413 ft 141 kts 74°
2026-04-22 01:12 28.14189 -80.85326 2411 ft 141 kts 81°
2026-04-22 01:12 28.14324 -80.84222 2412 ft 141 kts 82°
2026-04-22 01:12 28.14460 -80.83122 2412 ft 141 kts 82°
2026-04-22 01:12 28.14581 -80.82015 2412 ft 141 kts 86°
2026-04-22 01:13 28.14580 -80.80902 2393 ft 142 kts 91°
2026-04-22 01:13 28.14565 -80.79778 2297 ft 146 kts 91°
2026-04-22 01:13 28.14548 -80.78615 2203 ft 148 kts 91°
2026-04-22 01:13 28.14490 -80.77458 2099 ft 149 kts 94°
2026-04-22 01:14 28.14411 -80.76348 1852 ft 139 kts 95°
2026-04-22 01:14 28.14345 -80.75284 1684 ft 130 kts 94°
2026-04-22 01:14 28.14303 -80.74270 1520 ft 126 kts 92°
2026-04-22 01:14 28.14205 -80.73319 1438 ft 118 kts 112°
2026-04-22 01:15 28.13657 -80.72710 1444 ft 112 kts 156°
2026-04-22 01:15 28.12906 -80.72412 1434 ft 115 kts 163°
2026-04-22 01:15 28.12097 -80.72176 1354 ft 122 kts 167°
2026-04-22 01:15 28.11296 -80.71866 1261 ft 126 kts 149°
2026-04-22 01:16 28.10688 -80.71172 1253 ft 122 kts 121°
2026-04-22 01:16 28.10395 -80.70288 1118 ft 116 kts 102°
2026-04-22 01:16 28.10346 -80.69400 770 ft 109 kts 87°
2026-04-22 01:16 28.10397 -80.68579 546 ft 99 kts 85°
2026-04-22 01:17 28.10435 -80.68069 435 ft 93 kts 85°
2026-04-22 01:17 28.10476 -80.67348 301 ft 93 kts 86°
2026-04-22 01:17 28.10516 -80.66616 175 ft 92 kts 86°
2026-04-22 01:17 28.10546 -80.65889 56 ft 92 kts 87°
2026-04-22 01:18 28.10577 -80.65200 116 ft 84 kts 88°
2026-04-22 01:18 28.10603 -80.64483 322 ft 96 kts 88°
2026-04-22 01:18 28.10633 -80.63718 576 ft 97 kts 86°
2026-04-22 01:18 28.10875 -80.63030 824 ft 99 kts 40°
2026-04-22 01:19 28.11541 -80.62910 1005 ft 106 kts 344°
2026-04-22 01:19 28.12155 -80.63398 1048 ft 119 kts 291°
2026-04-22 01:19 28.12203 -80.64357 1071 ft 126 kts 268°
2026-04-22 01:19 28.12183 -80.65360 1128 ft 128 kts 269°
2026-04-22 01:20 28.12163 -80.66367 1203 ft 128 kts 268°
2026-04-22 01:20 28.12135 -80.67382 1255 ft 129 kts 268°
2026-04-22 01:20 28.11911 -80.68335 1250 ft 128 kts 223°
2026-04-22 01:20 28.11070 -80.68372 1193 ft 127 kts 161°
2026-04-22 01:21 28.10891 -80.67990 1210 ft 74 kts 324°
2026-04-22 01:21 28.10701 -80.68285 1085 ft 73 kts 135°
2026-04-22 01:21 28.10489 -80.67614 647 ft 114 kts 97°
2026-04-22 01:21 28.10513 -80.66658 296 ft 124 kts 86°
2026-04-22 01:22 28.10555 -80.65734 479 ft 108 kts 87°
2026-04-22 01:22 28.10617 -80.64907 728 ft 108 kts 84°
2026-04-22 01:22 28.10664 -80.64039 930 ft 111 kts 87°
2026-04-22 01:22 28.11027 -80.63351 1000 ft 121 kts
2026-04-22 01:23 28.11667 -80.63839 999 ft 122 kts 274°
2026-04-22 01:23 28.11984 -80.64739 1018 ft 126 kts 291°
2026-04-22 01:23 28.12171 -80.65752 945 ft 134 kts 273°
2026-04-22 01:23 28.12185 -80.66776 1103 ft 124 kts 270°
2026-04-22 01:24 28.12184 -80.67742 1201 ft 126 kts 270°
2026-04-22 01:24 28.11778 -80.68504 1304 ft 126 kts 194°
2026-04-22 01:24 28.10996 -80.68021 1064 ft 144 kts 128°
2026-04-22 01:24 28.10530 -80.67084 626 ft 124 kts 86°
2026-04-22 01:25 28.10539 -80.66177 155 ft 110 kts 89°
2026-04-22 01:25 28.10570 -80.65365 36 ft 92 kts 88°
2026-04-22 01:25 28.10597 -80.64725 125 ft 81 kts 90°
2026-04-22 01:25 28.10888 -80.64179 325 ft 91 kts 32°
2026-04-22 01:26 28.11492 -80.63803 494 ft 100 kts 15°
2026-04-22 01:26 28.12081 -80.64083 695 ft 103 kts 296°
2026-04-22 01:26 28.12182 -80.64953 687 ft 123 kts 272°
2026-04-22 01:26 28.12197 -80.65952 693 ft 129 kts 270°
2026-04-22 01:27 28.12194 -80.66966 763 ft 128 kts 270°
2026-04-22 01:27 28.12178 -80.67958 877 ft 126 kts 266°
2026-04-22 01:27 28.12100 -80.68938 1014 ft 121 kts 263°
2026-04-22 01:27 28.12011 -80.69838 1269 ft 112 kts 255°
2026-04-22 01:28 28.11445 -80.70347 1421 ft 120 kts 188°
2026-04-22 01:28 28.10626 -80.70020 1350 ft 133 kts 130°
2026-04-22 01:28 28.10382 -80.68964 1045 ft 149 kts 88°
2026-04-22 01:28 28.10450 -80.67780 622 ft 155 kts 86°
2026-04-22 01:29 28.10508 -80.66664 211 ft 130 kts 87°
2026-04-22 01:29 28.10554 -80.65738 34 ft 103 kts 86°
2026-04-22 01:29 28.10589 -80.65028 37 ft 80 kts 86°
2026-04-22 01:29 28.10610 -80.64386 190 ft 90 kts 87°
2026-04-22 01:30 28.10652 -80.63628 387 ft 99 kts 86°
2026-04-22 01:30 28.10905 -80.62914 481 ft 113 kts 25°
2026-04-22 01:30 28.11543 -80.63223 661 ft 109 kts 289°
2026-04-22 01:30 28.11848 -80.64011 847 ft 112 kts 296°
2026-04-22 01:31 28.12127 -80.64814 1099 ft 107 kts 281°
2026-04-22 01:31 28.12246 -80.65676 1249 ft 113 kts 276°
2026-04-22 01:31 28.12336 -80.66577 1374 ft 119 kts 277°
2026-04-22 01:31 28.12438 -80.67514 1487 ft 121 kts 278°
2026-04-22 01:32 28.12573 -80.68445 1658 ft 119 kts 279°
2026-04-22 01:32 28.12693 -80.69381 1793 ft 120 kts 270°
2026-04-22 01:32 28.12296 -80.70065 1780 ft 104 kts 186°
2026-04-22 01:32 28.11642 -80.69792 1497 ft 101 kts 149°
2026-04-22 01:33 28.11092 -80.69295 1191 ft 101 kts 135°
2026-04-22 01:33 28.10677 -80.68652 889 ft 101 kts 118°
2026-04-22 01:33 28.10489 -80.67898 601 ft 100 kts 97°
2026-04-22 01:33 28.10481 -80.67121 348 ft 96 kts 85°
2026-04-22 01:34 28.10524 -80.66390 159 ft 91 kts 86°
2026-04-22 01:34 28.10554 -80.65715 40 ft 81 kts 86°
2026-04-22 01:34 28.10583 -80.65132 47 ft 66 kts 87°
2026-04-22 01:34 28.10606 -80.64551 233 ft 80 kts 90°
2026-04-22 01:35 28.10984 -80.64164 435 ft 90 kts 10°
2026-04-22 01:35 28.11646 -80.64103 606 ft 101 kts
2026-04-22 01:35 28.12110 -80.64471 853 ft 97 kts 279°
2026-04-22 01:35 28.12201 -80.65253 1047 ft 105 kts 276°
2026-04-22 01:36 28.12279 -80.66093 1242 ft 108 kts 275°
2026-04-22 01:36 28.12334 -80.66922 1527 ft 103 kts 273°
2026-04-22 01:36 28.12347 -80.67725 1774 ft 104 kts 269°
2026-04-22 01:36 28.12321 -80.68577 1891 ft 114 kts 257°
2026-04-22 01:37 28.11684 -80.69054 1937 ft 126 kts 182°
2026-04-22 01:37 28.11084 -80.69464 1804 ft 132 kts 281°
2026-04-22 01:37 28.11387 -80.70418 1915 ft 128 kts 299°
2026-04-22 01:37 28.11868 -80.71255 2075 ft 119 kts 292°
2026-04-22 01:38 28.11660 -80.72009 2382 ft 113 kts 212°
2026-04-22 01:38 28.10852 -80.71955 2416 ft 126 kts 159°
2026-04-22 01:38 28.10361 -80.71156 2394 ft 125 kts 96°
2026-04-22 01:38 28.10334 -80.70285 2027 ft 110 kts 104°
2026-04-22 01:39 28.10337 -80.69433 1558 ft 107 kts 103°
2026-04-22 01:39 28.10396 -80.68589 1076 ft 107 kts 100°
2026-04-22 01:39 28.10460 -80.67768 686 ft 102 kts 101°
2026-04-22 01:39 28.10482 -80.66990 372 ft 95 kts 103°
2026-04-22 01:40 28.10523 -80.66271 150 ft 87 kts 105°
2026-04-22 01:40 28.10559 -80.65615 41 ft 78 kts 86°
2026-04-22 01:40 28.10587 -80.65057 42 ft 66 kts 86°
2026-04-22 01:40 28.10607 -80.64594 31 ft 46 kts 90°
2026-04-22 01:41 28.10622 -80.64308 27 ft 27 kts 86°
2026-04-22 01:41 28.10702 -80.64190 27 ft 18 kts
2026-04-22 01:41 28.10713 -80.64276 27 ft 21 kts 267°
2026-04-22 01:41 28.10703 -80.64500 30 ft 34 kts 267°
2026-04-22 01:42 28.10692 -80.64710 33 ft 15 kts 265°
2026-04-22 01:42 28.10702 -80.64826 35 ft 12 kts 322°
2026-04-22 01:42 28.10771 -80.64867 36 ft 0 kts 341°